Regional Weather Roundup
Issued by NWS Jackson, KY

Home | Current Version | Previous Version | Text Only | Print | Product List | Glossary On
Versions: 1 2 3 4 5 6 7 8 9 10 11 12 13 14 15 16 17 18 19 20 21 22 23 24 25 26 27 28 29 30 31 32 33 34 35 36 37 38 39 40 41 42 43 44 45 46 47 48 49 50
000
ASUS43 KJKL 280510
RWRJKL

EAST KENTUCKY HOURLY WEATHER ROUNDUP
NATIONAL WEATHER SERVICE JACKSON KY
100 AM EDT TUE JUL 28 2015

NOTE: "FAIR" INDICATES FEW OR NO CLOUDS BELOW 12,000 FEET WITH
NO SIGNIFICANT WEATHER AND/OR OBSTRUCTIONS TO VISIBILITY.

* THESE REPORTS ARE NOT UNDER NWS QUALITY CONTROL AND MAY NOT
  REPORT WEATHER SUCH AS PRECIPITATION AND FOG.

KYZ079-080-083-085-087-088-110-112-115-119-120-280600
...EASTERN KENTUCKY...

CITY           SKY/WX    TMP DP  RH WIND       PRES   REMARKS
JACKSON        MOCLDY    74  72  93 VRB3      30.05R FOG
LONDON         CLEAR     74  69  85 CALM      30.04S HAZE
SOMERSET*      PTCLDY    72  72 100 CALM      30.03F FOG
MONTICELLO*    CLEAR     74  74 100 CALM      30.04F FOG
MIDDLESBORO*   PTCLDY    72  71  98 CALM      30.05F
HAZARD APT*    PTCLDY    73  73 100 CALM      30.04S FOG
BLACK MTN*       N/A     68  68 100 E1          N/A
PIKEVILLE APT* FOG       72  72 100 N5        30.04F VSB 0
BIG SANDY*     PTCLDY    72  71  96 CALM      30.04S
MOREHEAD APT*  MOCLDY    73  70  88 S3        30.04F
$$

KYZ035-036-041-042-044-050-067-078-099-280600
...CENTRAL KENTUCKY...

CITY           SKY/WX    TMP DP  RH WIND       PRES   REMARKS
MT STERLING*     N/A     72  72 100 CALM      30.03F
FLEMING/MASON* CLEAR     72  70  94 S3        30.03F
DANVILLE*      CLEAR     72  72 100 CALM      30.03S
RICHMOND*      PTCLDY    75  72  88 CALM      30.02F
LEXINGTON      PTCLDY    75  71  87 SE5       30.01F
FRANKFORT      PTCLDY    76  72  87 E6        30.00S
$$

KYZ091>093-OHZ055-061-077-WVZ005-015-034-035-042-280600
...SOUTHERN OHIO/WEST VIRGINIA...

CITY           SKY/WX    TMP DP  RH WIND       PRES   REMARKS
COVINGTON      CLOUDY    77  72  84 E3        30.01F
COLUMBUS       MOCLDY    73  65  75 N3        30.01S
DAYTON         CLOUDY    74  69  85 NE5       30.03F
WILMINGTON     CLOUDY    74  71  91 CALM      30.02S
HUNTINGTON     CLOUDY    74  73  97 CALM      30.01S
CHARLESTON     MOCLDY    71  70  96 CALM      30.02S FOG
PINEVILLE*     MOCLDY    70  70 100 MISG      30.11R FOG
BECKLEY        CLEAR     70  66  87 CALM      30.10F
BLUEFIELD      CLEAR     73  66  78 CALM      30.12F
$$

VAZ002-007-008-TNZ017-027-036-066-071-280600
...SOUTHWEST VIRGINIA/EAST TENNESSEE...

CITY           SKY/WX    TMP DP  RH WIND       PRES   REMARKS
WISE*          MOCLDY    72  72 100 CALM      30.13F FOG
ABINGDON*      CLEAR     71  69  93 CALM      30.09S
BRISTOL        MOCLDY    71  70  96 CALM      30.06S FOG
KNOXVILLE      MOCLDY    79  72  79 N5        30.02S
OAK RIDGE      MOCLDY    77  72  84 E3        30.04S
CROSSVILLE     MOCLDY    75  71  87 CALM      30.08F
NASHVILLE      MOCLDY    81  76  84 CALM      29.98F
$$

...KEY TO REMARKS...
VSB - VISIBILITY IN MILES
WCI - WIND CHILL INDEX
HX  - HEAT INDEX

$$


USA.gov is the U.S. government's official web portal to all federal, state and local government web resources and services.